Location: Unspecified
(0.0000°N, 0.0000°E)
Time: 18:11:21
(UTC+00:00)

Hubble Space Telescope - Pass Details

Date: 11 May 2021
Orbit: 535 x 539 km, 28.5° (Epoch: 14 May)

Event Time Altitude Azimuth Distance (km) Brightness Sun altitude
Exits shadow 05:03:29 17° 226° (SW) 1,409 2.4 -12.6°
Maximum altitude 05:06:33 58° 150° (SSE) 618 1.1 -11.8°
Drops below altitude 10° 05:10:36 10° 70° (ENE) 1,772 5.0 -10.9°
Sets 05:12:52 0° 66° (ENE) 2,660 6.5 -10.3°
